Weather History for Saranac Lake, NY

Change the Weather History Date:

Friday, April 19, 2013

  Actual Average Record
Temperature  
Mean Temperature 52 °F 40 °F  
Max Temperature 68 °F 52 °F 81 °F (1976)
Min Temperature 36 °F 27 °F 16 °F (1983)
Degree Days  
Heating Degree Days 13 25  
Month to date heating degree days 561 558  
Since 1 July heating degree days 8079 8520  
Cooling Degree Days 0 0  
Month to date cooling degree days 0 0  
Year to date cooling degree days 0 0  
Growing Degree Days 2 (Base 50)    
Moisture  
Dew Point 46 °F    
Average Humidity 74    
Maximum Humidity 92    
Minimum Humidity 55    
Precipitation  
Precipitation 0.40 in 0.10 in 1.37 in (1969)
Month to date precipitation 2.19 1.78  
Year to date precipitation 4.93 7.80  
Sea Level Pressure  
Sea Level Pressure 29.64 in    
Wind  
Wind Speed 18 mph (SW)    
Max Wind Speed 35 mph    
Max Gust Speed 46 mph    
Visibility 8 miles    
Events Rain    
T = Trace of Precipitation, MM = Missing Value Source: NWS Daily Summary

Daily Weather History Graph

Daily Weather History Graph

Search for Another Location

Airport:

Trip Planner

Search our weather history database for the weather conditions in past years. The results will help you decide how hot, cold, wet, or windy it might be!

Date:

Astronomy

Apr. 19, 2013 Rise Set
Actual Time 6:05 AM EDT 7:46 PM EDT
Civil Twilight 5:35 AM EDT 8:17 PM EDT
Nautical Twilight 4:58 AM EDT 8:54 PM EDT
Astronomical Twilight 4:17 AM EDT 9:35 PM EDT
Moon 1:14 PM EDT (4/19) 2:34 AM EDT (4/19)
Length of Visible Light 14h 42m
Length of Day
13h 40m
First Quarter, 61% of the Moon is Illuminated
Apr 19
First Quarter
Apr 25
Full
May 2
Last Quarter
May 9
New
May 18
First Quarter

Hourly Weather History & Observations

Time (EDT) Temp. Windchill Dew Point Humidity Pressure Visibility Wind Dir Wind Speed Gust Speed Precip Events Conditions
12:51 AM 55.0 °F - 46.9 °F 74% 29.83 in 10.0 mi SSW 23.0 mph 32.2 mph N/A   Clear
1:51 AM 55.0 °F - 46.9 °F 74% 29.81 in 10.0 mi SW 16.1 mph 23.0 mph N/A   Clear
2:51 AM 55.0 °F - 48.0 °F 77% 29.79 in 10.0 mi SW 16.1 mph 26.5 mph N/A   Partly Cloudy
3:51 AM 55.9 °F - 48.9 °F 77% 29.76 in 10.0 mi SSW 12.7 mph 25.3 mph N/A   Clear
4:51 AM 55.9 °F - 48.9 °F 77% 29.77 in 10.0 mi WSW 11.5 mph - N/A   Partly Cloudy
5:51 AM 55.0 °F - 48.9 °F 80% 29.77 in 10.0 mi SSW 12.7 mph 21.9 mph N/A   Partly Cloudy
6:51 AM 55.9 °F - 50.0 °F 80% 29.76 in 10.0 mi SSW 15.0 mph 23.0 mph N/A   Mostly Cloudy
7:51 AM 57.9 °F - 51.1 °F 78% 29.75 in 10.0 mi SSW 18.4 mph 28.8 mph N/A   Overcast
8:51 AM 60.1 °F - 51.1 °F 72% 29.72 in 10.0 mi South 23.0 mph 33.4 mph N/A   Mostly Cloudy
9:15 AM 62.6 °F - 51.8 °F 68% 29.70 in 10.0 mi SSW 25.3 mph 39.1 mph N/A   Scattered Clouds
9:51 AM 62.1 °F - 52.0 °F 70% 29.70 in 10.0 mi South 21.9 mph 32.2 mph N/A   Scattered Clouds
10:51 AM 63.0 °F - 51.1 °F 65% 29.67 in 10.0 mi SSW 21.9 mph 33.4 mph N/A   Clear
11:51 AM 66.9 °F - 52.0 °F 59% 29.63 in 10.0 mi SSW 25.3 mph 34.5 mph N/A   Clear
12:51 PM 68.0 °F - 52.0 °F 56% 29.60 in 10.0 mi South 26.5 mph 40.3 mph N/A   Clear
1:51 PM 66.9 °F - 51.1 °F 57% 29.57 in 10.0 mi SSW 21.9 mph 38.0 mph N/A   Scattered Clouds
2:51 PM 68.0 °F - 52.0 °F 56% 29.54 in 10.0 mi SSW 23.0 mph 38.0 mph N/A   Partly Cloudy
3:51 PM 66.9 °F - 52.0 °F 59% 29.51 in 10.0 mi South 19.6 mph 41.4 mph N/A   Mostly Cloudy
4:51 PM 63.0 °F - 54.0 °F 72% 29.46 in 10.0 mi SSW 23.0 mph 33.4 mph 0.00 in   Mostly Cloudy
5:51 PM 64.9 °F - 54.0 °F 68% 29.45 in 10.0 mi SSW 26.5 mph 38.0 mph N/A   Mostly Cloudy
6:51 PM 66.0 °F - 54.0 °F 65% 29.41 in 10.0 mi South 29.9 mph 43.7 mph N/A   Overcast
7:28 PM 55.4 °F - 51.8 °F 88% 29.50 in 2.5 mi West 17.3 mph 36.8 mph 0.06 in Rain Heavy Rain
7:36 PM 48.2 °F - 44.6 °F 87% 29.52 in 2.5 mi WSW 18.4 mph 32.2 mph 0.11 in Rain Heavy Rain
7:43 PM 46.4 °F 39.0 °F 44.6 °F 93% 29.53 in 3.0 mi West 19.6 mph 38.0 mph 0.13 in Rain Rain
7:51 PM 46.0 °F 39.0 °F 43.0 °F 89% 29.56 in 6.0 mi WSW 17.3 mph 38.0 mph 0.14 in Rain Light Rain
7:58 PM 44.6 °F 38.1 °F 42.8 °F 93% 29.56 in 5.0 mi West 13.8 mph 31.1 mph 0.01 in Rain Rain
8:38 PM 41.0 °F 33.1 °F 37.4 °F 87% 29.62 in 5.0 mi SW 15.0 mph 27.6 mph 0.13 in Rain Light Rain
8:47 PM 41.0 °F 33.9 °F 37.4 °F 87% 29.63 in 8.0 mi SW 12.7 mph 18.4 mph 0.13 in Rain Light Rain
8:51 PM 41.0 °F 34.7 °F 37.9 °F 89% 29.63 in 7.0 mi WSW 10.4 mph 20.7 mph 0.14 in Rain Light Rain
9:51 PM 37.9 °F 29.6 °F 36.0 °F 93% 29.66 in 6.0 mi SW 13.8 mph 27.6 mph 0.07 in Rain Rain
10:07 PM 37.4 °F 29.3 °F 35.6 °F 93% 29.65 in 5.0 mi WSW 12.7 mph 29.9 mph 0.03 in Rain Rain
10:14 PM 37.4 °F 28.9 °F 35.6 °F 93% 29.65 in 6.0 mi SW 13.8 mph 21.9 mph 0.04 in Rain Rain
10:51 PM 37.0 °F 28.9 °F 34.0 °F 89% 29.66 in 10.0 mi SW 12.7 mph 19.6 mph 0.05 in   Overcast
11:51 PM 36.0 °F 28.0 °F 33.1 °F 89% 29.67 in 10.0 mi SW 11.5 mph 20.7 mph N/A   Overcast